User: anonymous   Login
Location: Moonridge Observatory
(39.2268°N, 77.7914°W)
Time: 20:50:49
(UTC-04:00)
Language:

CZ-2C R/B - Orbit

View from above orbital plane
View from above orbital plane
View from above satellite
View from above satellite

Ground track
Ground track

The orbit data is extracted from the following two-line orbital elements,

1 28480U 04046B   17207.25799259 -.00000004 +00000-0 +13388-4 0  9993
2 28480 098.1970 300.9335 0143258 109.1558 277.1763 14.25643530659784
Epoch (UTC): 26 July 2017 06:11:30
Eccentricity: 0.0143258
inclination: 98.1970°
perigee height: 703 km
apogee height: 909 km
right ascension of ascending node: 300.9335°
argument of perigee: 109.1558°
revolutions per day: 14.25643530
mean anomaly at epoch: 277.1763°
orbit number at epoch: 65978

The dashed part of the orbit path shows where the satellite is in the earth's shadow,  

DLR